CZ-6A DEB

Satellite information

Favourite Embed

Satellite Type and Status

DEBRISIN ORBIT

Key statistics

Satellite CZ-6A DEB at a glance.

Uptime

1129

Days in orbit

Revolutions

≈ 14.8

Per day

Orbit

SSO

Sun Synchronous Orbit

Inclination

98.9

Latest

Satellite identification and parameters

Extended collection of information and parameters for CZ-6A DEB.

Object identification

Identified? True

Debris? True

Object name: CZ-6A DEB

International designator: 2022-151MY

Object number (NORAD): 54598

Object ID (CCSDS): 54598

Country: PEOPLES REPUBLIC OF CHINA (PRC)

Current information (Y/N): Y

RCS size: SMALL

Orbital parameters

Period: 97.489 minutes

Inclination: 98.894 deg

SMA: 7016.639 km

Apoapsis: 673.582 km

Periapsis: 603.426 km

RAAN: 80.4346 deg

Eccentricy: 0.00499931

Argument of periapsis: 110.4783 deg

Mean anomaly: 250.1801 deg

Mean motion: 14.7709712 rev/day

Mean motion (dot): 0.00032867 rev/day2

B* drag term: 0.0045459414 1/REarth

Two-line elements (TLE)

Creation date: Dec. 12, 2025, 10:14 a.m.

Reference frame: TEME

Reference center: EARTH

Epoch: Dec. 12, 2025, 5:40 a.m. UTC

TLE line 0: 0 CZ-6A DEB

TLE line 1: 1 54598U 22151MY 25346.23614522 .00032867 00000-0 45459-2 0 9992

TLE line 2: 2 54598 98.8940 80.4346 0049993 110.4783 250.1801 14.77097120162985

Live tracking on map

Real-time ground track for satellite CZ-6A DEB.

In-orbit conjunctions

A list of the most updated potential collisions computed for object CZ-6A DEB.

Target Orbit TCA Probability of collision Miss distance Type
PEGASUS DEB LEO 2025-08-16 06:46:48 0.0001120756 212.0 (m) DEBRIS
SL-14 DEB LEO 2025-03-06 05:14:59 0.0001391585 34.0 (m) DEBRIS
SL-8 R/B LEO 2024-08-06 15:15:24 0.0001240074 406.0 (m) ROCKET BODY

Associated space launch

Chinese satellite reported for atmospheric/ocean/environmental/spatial parameter research purposes, details TBD.

CZ-6A DEB was lifted into orbit during the mission ‘Long March 6A | Yunhai 3’, on board a Long March 6A space rocket.

The launch took place on Nov. 11, 2022, 10:52 p.m. from Launch Complex 9A.

For more information about the launch, click the button.

Launch to space Long March 6A | Yunhai 3
Long March 6A | Yunhai 3

Agency: N/A

Status: Launch Successful

Launch date: Nov. 11, 2022, 10:52 p.m. UTC

Rocket: Long March 6A

Launch pad: Launch Complex 9A

Location: Taiyuan Satellite Launch Center, People's Republic of China

...

Latest news about this satellite

There are no fresh news available about this satellite. Check back as we update our databases every day.


Newsletter sign-up

Weekly statistics, charts and insights to help you stay on top of the space industry.